Theta_e
325 327 327 325 332 329 333 331 330 331 334 332 327 323 325 328 327 329 329 331 332 335 338 335 334 332 331 330 328 328 328 328 328 328 328 328 327 327 327 327 327 329 328 326 326 325 327 327 327
325 327 325 323 332 332 327 327 330 327 329 330 330 334 335 336 333 329 330 331 332 336 337 334 332 331 330 329 328 326 327 328 328 327 328 327 328 327 327 326 327 327 326 327 326 327 327 327 324
324 327 326 329 331 332 326 323 326 326 332 328 331 333 334 337 331 329 331 331 333 337 336 335 333 332 330 329 327 327 327 326 327 327 327 328 327 328 328 328 327 326 327 327 327 327 328 324 325
324 323 321 331 334 332 324 323 326 323 324 332 332 337 332 332 331 331 330 332 333 337 336 335 332 331 331 329 328 327 328 327 327 328 327 326 329 332 328 326 325 326 328 328 328 328 327 325 325
324 322 330 331 331 329 326 324 322 323 322 325 333 336 335 332 332 330 331 332 334 337 337 335 333 331 331 330 328 327 328 327 327 327 327 327 332 328 327 325 326 326 327 328 328 328 326 324 325
327 322 330 332 329 328 326 324 323 323 322 321 331 334 334 332 333 331 331 333 334 337 337 335 334 332 332 331 327 328 328 328 326 328 326 327 326 325 325 326 327 327 327 328 328 325 324 323 325
326 326 329 329 329 328 326 323 323 323 324 324 329 335 332 331 333 332 332 333 335 336 337 336 335 333 331 331 329 327 328 327 327 327 328 327 325 325 327 327 326 329 327 328 327 324 322 323 324
323 324 330 328 330 330 325 323 321 324 325 326 330 336 337 331 332 334 334 335 336 336 336 337 336 333 332 331 330 328 327 327 327 326 327 326 324 325 326 326 327 328 328 327 320 319 322 323 323
321 329 331 330 329 328 320 320 322 320 324 324 331 332 330 331 332 335 334 336 336 335 336 336 336 334 333 332 331 328 328 327 327 327 327 325 325 326 326 326 328 326 327 326 320 320 321 322 323
319 327 327 324 319 314 311 314 314 321 322 323 323 328 331 329 330 332 332 332 333 334 335 336 334 335 334 334 332 328 327 327 326 326 326 325 325 325 326 326 327 326 327 326 321 318 320 322 322
308 320 310 310 309 306 308 309 311 313 318 322 323 320 323 330 324 330 332 332 332 332 332 335 335 334 334 334 333 331 329 328 327 326 326 324 325 324 325 326 327 327 326 323 323 318 320 320 320
306 307 306 306 306 304 305 306 308 309 310 313 314 316 320 330 329 323 330 331 331 332 332 333 333 334 332 333 334 332 329 329 327 326 326 325 324 324 324 325 326 326 324 322 320 320 318 318 319
307 306 304 303 303 303 303 303 304 304 305 306 308 313 316 327 329 330 325 328 330 331 331 331 332 332 332 332 334 333 331 329 327 326 326 325 324 322 323 323 326 326 323 321 319 319 317 317 317
304 304 304 303 303 301 303 303 302 303 302 303 304 304 305 313 327 330 330 326 329 331 331 331 332 331 330 330 331 333 332 329 327 326 326 324 322 321 321 322 325 326 323 319 317 316 316 316 315
306 305 301 303 300 302 302 300 304 302 302 303 303 302 302 303 308 326 330 330 327 331 331 332 332 331 330 329 329 332 332 330 328 327 326 325 322 320 320 321 324 325 324 318 316 315 315 314 313
301 299 300 299 301 302 303 301 302 302 302 303 303 301 300 302 303 305 312 329 329 329 332 331 332 331 329 328 329 330 330 330 329 328 327 325 324 321 319 320 323 324 324 318 315 314 313 312 311
299 302 302 302 302 301 303 303 302 303 303 303 303 303 302 301 301 303 305 307 327 328 330 332 332 332 331 330 329 327 329 329 329 328 327 325 325 323 317 319 321 324 325 318 314 312 312 310 306
304 303 303 303 303 303 303 304 303 303 303 303 303 303 302 302 301 302 303 305 311 328 328 330 332 333 332 331 330 329 329 329 328 328 328 327 325 323 318 319 321 324 321 317 312 311 308 306 302
302 303 304 304 303 303 304 304 303 303 303 302 301 301 300 300 302 301 302 304 306 315 327 327 331 332 332 331 331 330 329 328 327 327 328 328 326 323 320 320 321 323 321 319 312 308 306 300 300
303 305 304 303 303 303 303 303 303 303 301 302 301 304 304 304 304 304 304 304 304 308 322 327 328 331 333 332 330 330 328 326 326 326 326 326 322 319 322 322 322 322 316 313 310 307 301 298 299
304 305 305 305 303 302 303 303 302 301 301 304 307 305 305 304 303 303 303 303 304 305 308 326 326 329 332 332 331 328 326 323 323 323 324 322 320 318 320 322 322 321 318 314 310 308 303 298 297
304 303 302 302 303 301 304 306 303 303 302 306 307 306 305 303 302 302 302 302 302 302 303 307 325 326 330 332 329 325 325 320 321 320 323 322 321 319 321 323 323 319 314 311 305 303 302 298 296
302 300 302 302 303 305 304 307 304 302 303 310 307 304 304 303 301 301 301 301 301 301 301 303 319 325 327 331 326 324 325 323 320 319 320 322 320 320 321 321 321 317 311 308 305 301 300 298 296
299 300 301 301 304 298 304 307 305 304 310 308 303 303 301 300 300 299 300 300 300 300 300 301 308 324 325 329 325 323 325 320 314 313 314 315 318 319 318 316 314 312 310 308 304 301 301 298 297
300 299 293 296 294 298 303 305 306 306 308 304 302 301 301 300 299 298 298 298 299 299 299 299 303 311 325 326 324 323 323 320 316 314 314 313 309 309 312 312 309 306 305 303 301 298 297 296 297
300 298 294 300 299 303 304 307 307 309 304 303 303 302 301 300 299 298 298 297 297 298 298 298 300 306 322 324 323 322 321 317 313 313 312 309 306 306 302 305 305 304 301 299 297 296 296 297 297
297 296 301 306 299 305 305 304 304 305 305 305 304 303 301 299 298 296 296 296 296 297 297 297 299 301 308 323 321 320 319 314 312 309 306 304 303 301 301 301 299 298 297 296 296 296 296 297 295
298 300 299 296 302 302 303 306 306 306 306 305 305 303 299 298 295 294 294 295 296 296 297 297 298 300 304 320 320 319 314 310 307 306 302 298 297 296 295 295 294 294 294 296 297 296 294 295 294
293 293 300 303 304 306 307 305 304 306 305 305 303 300 298 294 293 293 293 294 295 296 297 298 299 300 302 318 316 313 308 304 300 296 293 292 292 292 292 292 293 295 296 296 295 293 294 291 283
296 296 303 302 303 303 304 303 303 306 305 302 301 299 294 293 292 292 294 294 295 297 298 299 301 303 304 308 308 303 300 299 296 294 293 293 293 292 291 292 293 294 294 294 294 293 286 282 281
Wind_Speed
16 14 7 5 3 4 3 6 3 6 5 2 2 4 5 3 4 4 2 13 30 38 34 29 25 23 22 21 20 20 20 20 19 19 18 18 17 16 16 16 14 14 13 13 13 14 15 13 12
18 10 3 2 3 1 5 5 7 7 4 2 3 3 2 3 2 1 11 13 33 40 36 32 28 25 23 22 21 22 20 20 20 19 18 17 18 17 16 16 15 13 13 14 14 14 13 12 14
10 5 1 4 3 4 4 5 5 6 5 3 2 2 4 2 1 8 5 22 35 37 37 34 31 27 26 23 24 21 21 20 20 20 19 18 18 18 17 15 14 14 14 14 13 12 11 13 13
5 2 3 2 5 4 4 6 4 9 7 1 4 2 1 2 2 7 10 27 37 37 37 35 33 29 25 24 25 23 23 21 21 19 18 18 17 20 17 16 15 15 14 14 12 11 11 13 11
1 1 1 2 5 4 4 6 4 8 6 5 3 5 3 1 5 10 21 30 36 33 36 35 34 31 26 23 27 23 22 22 21 21 20 19 17 17 16 18 17 16 15 13 11 10 10 11 11
1 2 1 4 6 6 3 7 3 4 4 8 3 2 5 2 11 17 24 29 32 33 34 34 34 34 31 25 27 26 23 23 21 22 20 20 18 17 18 20 18 16 15 12 11 9 9 10 11
4 3 4 3 6 7 4 3 3 3 4 6 1 3 4 3 12 21 25 29 30 33 36 35 34 33 32 30 26 29 27 24 23 21 21 21 19 21 21 19 18 16 15 13 11 10 10 11 12
3 4 3 5 9 10 4 4 4 3 5 4 3 4 5 2 16 21 25 27 31 33 36 32 35 34 32 31 29 29 30 27 25 23 21 19 20 21 20 19 17 16 14 12 10 11 12 13 14
2 1 4 4 3 5 8 8 4 4 4 5 4 2 7 2 19 22 19 22 25 32 35 31 32 36 34 33 31 30 31 29 27 25 24 22 21 21 20 19 16 15 13 13 11 13 14 15 16
2 3 4 2 4 4 8 3 9 6 7 4 6 2 9 9 15 17 20 22 25 29 32 32 31 34 34 34 31 30 31 30 29 28 26 26 25 24 22 20 16 14 14 13 11 11 14 15 15
4 3 5 3 6 8 6 7 5 6 6 7 6 10 7 5 11 14 17 25 27 26 29 34 31 33 33 31 34 31 30 32 32 30 29 28 28 27 25 23 19 16 15 16 15 13 14 14 14
3 4 3 7 6 7 9 7 6 10 9 12 12 8 6 8 10 15 20 23 28 31 31 34 36 33 34 33 35 32 32 33 34 31 32 31 30 29 27 26 23 20 18 17 16 16 16 15 15
2 5 8 9 9 8 9 6 7 12 16 16 14 11 10 8 11 21 19 18 20 25 27 30 35 39 34 31 33 33 34 33 35 34 32 31 31 31 29 27 24 21 20 18 17 18 17 17 17
4 5 10 6 8 7 6 8 3 8 10 11 10 9 10 9 10 15 13 20 24 25 27 27 33 38 35 34 35 32 37 37 37 35 36 32 32 31 30 27 25 23 21 19 19 20 19 18 18
4 6 8 1 6 6 10 5 3 3 8 15 18 12 9 11 16 11 20 23 25 26 24 27 29 36 39 34 35 31 33 36 38 38 36 34 33 32 31 29 27 25 24 21 20 20 20 20 19
5 4 6 7 9 5 4 8 9 16 15 23 19 12 9 12 13 18 17 22 26 25 29 33 32 35 38 37 34 32 30 35 36 36 37 35 34 32 31 30 29 27 26 24 23 23 23 21 20
7 5 5 8 7 5 5 14 10 17 20 21 19 17 12 11 12 22 23 21 23 30 32 35 38 36 39 37 35 33 30 35 37 36 37 38 36 31 29 32 29 27 27 26 26 25 24 25 22
8 5 5 11 7 10 11 22 14 20 19 19 19 16 14 11 14 22 25 22 20 26 32 36 37 35 35 31 31 33 33 35 37 40 40 39 38 36 32 33 30 29 27 29 28 27 23 26 27
6 5 12 12 13 5 15 22 22 24 16 12 10 9 8 9 12 20 24 26 20 21 29 33 33 35 33 31 30 32 32 33 36 38 43 43 41 36 34 32 31 32 32 33 32 28 29 25 28
5 7 11 11 6 15 15 24 27 17 7 2 4 6 6 9 12 12 20 21 19 19 24 31 35 37 37 35 34 30 31 29 32 36 40 42 38 37 38 34 33 34 33 33 34 35 29 21 29
4 6 6 13 16 16 5 8 12 7 2 2 3 3 4 6 11 11 13 19 24 22 18 24 33 37 39 39 31 26 27 24 29 32 35 35 35 38 38 37 34 35 35 37 36 36 32 22 18
9 1 9 16 12 4 6 6 8 5 6 3 6 7 8 8 10 9 9 15 20 24 25 20 29 37 40 37 34 37 35 24 28 35 37 35 35 33 35 34 33 33 34 37 35 35 30 29 25
9 10 16 14 9 7 1 4 8 9 3 5 9 11 12 8 10 14 12 16 22 25 27 24 22 33 37 36 35 39 35 28 27 34 34 32 29 34 33 33 33 32 34 30 33 30 25 24 22
9 8 9 1 1 2 3 1 8 6 3 3 8 11 13 12 14 12 14 20 20 24 26 26 20 28 33 36 36 38 32 32 32 33 34 32 33 33 32 30 29 32 31 29 29 30 28 28 27
9 5 4 6 4 4 1 5 11 1 3 3 10 12 14 13 13 15 15 13 22 22 24 24 20 19 30 35 33 38 32 39 40 41 41 40 37 35 35 33 34 32 30 29 29 27 28 31 29
5 2 4 5 4 12 14 7 5 5 3 9 12 13 17 17 14 14 16 16 21 22 22 22 21 20 21 31 35 37 33 38 34 40 42 39 38 40 39 40 36 33 31 31 31 33 31 31 29
5 2 4 5 4 5 4 6 4 2 14 24 23 20 19 19 15 20 18 21 21 22 22 22 22 22 19 30 33 29 33 33 34 36 35 37 40 41 38 36 36 35 35 37 37 36 33 30 23
4 3 4 3 5 6 5 6 7 7 20 22 18 20 21 17 20 17 17 20 24 24 25 23 22 22 22 25 32 28 27 27 32 36 38 36 39 39 40 40 40 44 44 43 40 34 30 31 27
4 4 2 3 3 4 6 5 4 8 21 20 22 19 18 22 20 18 17 22 24 24 23 23 22 21 20 20 27 31 30 30 31 31 30 31 33 38 38 43 45 46 44 39 35 35 33 32 29
3 4 1 2 4 4 5 7 3 11 21 25 22 15 19 19 18 17 17 19 20 17 19 20 18 16 14 30 34 33 33 31 32 34 36 34 36 37 41 42 46 43 38 38 38 36 31 31 29
Wind_Direction
348 350 360 57 40 62 273 256 271 291 322 256 87 145 194 150 172 213 307 154 165 163 165 166 162 159 158 156 154 152 148 149 152 148 149 142 143 148 149 146 141 131 129 124 120 117 117 116 110
346 360 29 96 109 278 269 259 246 243 252 128 192 142 86 274 152 93 128 179 172 166 165 164 163 164 160 159 160 156 157 155 153 152 152 148 148 149 150 147 145 137 134 128 123 121 120 119 111
347 355 91 138 167 195 241 236 260 292 278 246 212 5 152 245 185 184 220 174 172 167 168 166 165 166 166 163 163 160 160 159 160 157 158 153 153 154 149 143 145 141 138 132 127 123 123 123 117
341 2 42 138 227 239 225 289 292 343 340 321 316 277 288 185 177 188 173 170 171 169 172 168 169 168 173 169 165 166 165 163 163 163 159 156 162 150 149 149 147 146 142 135 131 127 131 133 135
275 26 192 213 241 244 224 267 290 309 288 298 11 297 260 143 179 166 163 170 172 170 176 173 173 169 176 175 167 170 169 169 164 167 166 164 152 155 162 152 150 149 145 140 134 134 140 145 142
99 134 84 250 255 261 285 285 270 259 269 298 213 182 258 173 166 166 169 174 179 172 179 179 179 175 176 178 172 174 173 173 174 172 171 172 168 162 157 161 155 152 153 143 138 139 140 142 144
116 98 228 244 259 269 250 212 237 275 295 293 277 208 278 220 185 170 177 177 182 180 181 183 185 182 179 179 181 176 174 176 177 177 176 175 168 166 166 161 159 158 150 153 147 149 140 144 143
120 126 212 223 246 275 250 332 4 6 279 324 189 247 269 327 175 171 175 180 183 187 187 182 189 188 185 184 185 182 178 177 178 179 179 178 174 173 169 167 168 166 161 154 148 140 144 141 139
107 78 239 252 211 261 17 7 313 294 250 347 312 297 296 294 170 166 165 175 180 190 189 186 187 193 190 191 189 186 182 182 179 181 181 179 177 179 176 176 172 172 166 155 146 138 146 144 141
89 198 234 39 12 342 324 330 329 311 317 302 305 259 5 167 174 175 180 188 190 190 191 190 188 192 195 194 193 191 187 186 184 182 185 182 182 183 182 180 176 173 165 154 156 146 147 147 143
340 227 339 309 342 353 305 306 325 298 288 241 304 315 346 205 211 217 210 195 194 192 192 193 191 190 194 195 196 194 191 190 191 186 189 187 188 188 185 181 178 177 169 165 172 159 153 150 147
357 3 25 304 325 325 304 295 282 258 255 279 288 277 278 229 222 225 222 209 193 192 196 194 195 190 195 198 202 195 193 194 195 196 194 193 191 190 188 185 182 180 176 171 170 168 162 156 151
48 321 315 305 302 290 280 266 271 280 277 284 297 298 293 263 245 232 230 231 213 205 199 196 196 196 194 196 198 198 194 196 199 199 200 200 197 193 191 188 186 182 179 178 168 170 164 157 150
304 286 290 298 314 304 321 294 263 312 4 345 335 323 315 307 265 256 229 233 217 211 205 198 198 199 193 199 203 201 197 199 202 203 205 205 203 198 194 192 188 186 184 178 173 171 165 156 152
308 325 328 23 324 301 344 325 209 300 317 320 308 292 286 293 301 262 245 233 224 215 212 207 201 200 198 198 204 200 199 201 202 206 209 208 207 202 198 195 193 189 187 181 173 166 161 154 148
19 50 358 326 320 300 25 293 340 318 317 302 295 286 263 270 273 280 285 250 233 216 210 214 208 204 203 201 202 204 202 202 205 207 213 211 209 206 202 201 196 195 187 183 177 168 159 152 150
20 303 302 312 293 271 37 294 279 298 285 289 290 290 286 273 274 274 270 266 249 227 211 212 212 208 203 203 200 204 209 207 211 212 212 213 209 209 205 208 201 200 188 186 180 169 166 154 143
304 310 285 292 276 307 294 277 296 292 292 286 284 285 286 281 271 275 275 274 265 238 220 215 208 210 205 202 200 201 204 208 210 209 212 214 211 210 208 208 202 201 194 186 182 172 164 156 144
261 261 283 282 288 299 284 297 296 283 297 292 296 306 311 315 316 300 282 280 276 259 230 216 209 211 201 195 192 195 199 199 202 205 210 214 210 205 209 208 206 201 197 192 186 173 162 145 153
280 286 294 294 321 313 302 299 282 290 263 276 336 6 347 344 348 348 347 344 323 285 247 222 213 209 206 205 203 199 196 198 202 204 209 212 206 206 206 207 203 201 197 190 184 176 154 155 160
296 268 295 294 318 295 312 285 295 318 277 173 48 304 320 340 340 336 337 332 333 329 309 239 218 213 210 206 203 195 189 194 196 202 204 202 203 202 207 207 208 203 203 196 190 185 172 157 176
313 341 304 291 330 290 45 285 304 303 303 45 344 348 329 328 337 329 328 324 325 320 322 303 240 216 213 209 194 191 194 189 200 196 199 198 199 201 204 206 203 202 201 195 189 185 182 168 157
263 320 286 294 286 287 304 257 280 288 323 16 352 339 341 319 323 326 316 311 313 316 317 312 276 225 211 209 197 199 200 197 189 194 195 188 187 196 195 200 200 199 197 193 189 184 182 174 154
294 301 299 295 269 5 238 184 286 296 21 331 334 336 335 327 323 315 304 309 308 315 317 320 310 236 213 209 198 200 204 185 178 181 181 176 181 186 191 193 192 192 190 187 187 184 188 175 165
357 354 341 357 1 233 187 289 248 325 79 324 320 324 331 324 319 320 317 315 311 309 311 314 307 304 215 208 198 201 198 195 187 181 179 181 181 177 179 184 181 177 180 177 177 171 165 162 156
320 101 126 292 299 293 283 233 266 122 246 334 326 320 334 330 323 315 309 307 303 302 304 305 301 291 238 205 199 202 199 194 188 183 183 179 177 177 178 176 174 171 170 162 157 153 152 149 149
294 350 220 269 266 271 264 291 279 335 343 344 340 333 326 322 325 317 310 302 300 300 297 294 294 292 293 195 195 197 195 186 184 183 178 173 176 173 169 171 162 153 152 150 147 142 144 143 141
164 301 353 337 313 292 274 282 261 341 342 332 326 324 320 327 318 313 307 306 302 296 293 288 283 280 273 203 192 185 183 176 176 179 173 169 163 162 161 158 152 147 145 144 145 147 146 137 137
340 352 341 268 241 290 307 280 218 340 338 330 328 325 331 322 319 315 308 304 301 295 289 285 278 273 265 207 168 164 162 161 156 148 141 136 138 146 146 144 141 143 143 143 145 140 139 137 138
246 203 127 259 311 276 264 269 275 327 337 332 326 333 326 323 318 315 309 311 302 300 299 288 276 259 274 145 152 144 148 150 148 144 143 147 141 137 135 135 139 140 138 141 141 139 142 142 140